Vancouver, WA

6:10 PM PDT on October 18, 2017 (GMT -0700)
Pearson

Weather History for KVUO - August, 2012

Change the Weather History Date:

Saturday, August 4, 2012

  Actual Average Record
Temperature  
Mean Temperature 81 °F 70 °F  
Max Temperature 103 °F 82 °F 103 °F (2012)
Min Temperature 59 °F 58 °F 45 °F (1984)
Degree Days  
Heating Degree Days 0    
Month to date heating degree days 0  
Since 1 June heating degree days 131  
Since 1 July heating degree days 10  
Cooling Degree Days 16    
Month to date cooling degree days 29  
Year to date cooling degree days 190  
Since 1 June cooling degree days 176  
Growing Degree Days 32 (Base 50)    
Moisture  
Dew Point 55 °F    
Average Humidity 46    
Maximum Humidity 78    
Minimum Humidity 13    
Precipitation  
Precipitation 0.00 in 0.02 in 0.90 in (1933)
Month to date precipitation 0.00 0.05  
Year to date precipitation 26.69 21.11  
Snow  
Snow 0.00 in - - ()
Month to date snowfall 0.0  
Since 1 June snowfall 0.0  
Snow Depth 0.00 in    
Sea Level Pressure  
Sea Level Pressure 29.83 in    
Wind  
Wind Speed 4 mph (NW)    
Max Wind Speed 12 mph    
Max Gust Speed 16 mph    
Visibility 10 miles    
Events      
T = Trace of Precipitation, MM = Missing Value Source: NWS Daily Summary

Daily Weather History Graph

Daily Weather History Graph

Search for Another Location

Airport or City:

Trip Planner

Search our weather history database for the weather conditions in past years. The results will help you decide how hot, cold, wet, or windy it might be!

Date:

Astronomy

Aug. 04, 2012 Rise Set
Actual Time 5:58 AM PDT 8:34 PM PDT
Civil Twilight 5:24 AM PDT 9:07 PM PDT
Nautical Twilight 4:42 AM PDT 9:49 PM PDT
Astronomical Twilight 3:53 AM PDT 10:38 PM PDT
Moon 9:31 PM PDT (8/4) 9:03 AM PDT (8/4)
Length of Visible Light 15h 43m
Length of Day
14h 35m
Waning Gibbous, 92% of the Moon is Illuminated
Aug 4
Waning Gibbous
Aug 9
Last Quarter
Aug 17
New
Aug 24
First Quarter
Aug 31
Full

Hourly Weather History & Observations

Time (PDT) Temp. Heat Index Dew Point Humidity Pressure Visibility Wind Dir Wind Speed Gust Speed Precip Events Conditions
12:53 AM 70.0 °F - 54.0 °F 57% 29.88 in 10.0 mi West 3.5 mph - N/A   Clear
1:53 AM 68.0 °F - 54.0 °F 61% 29.88 in 10.0 mi Calm Calm - N/A   Clear
2:53 AM 62.1 °F - 54.0 °F 75% 29.88 in 10.0 mi Calm Calm - N/A   Clear
3:53 AM 62.1 °F - 53.1 °F 72% 29.88 in 10.0 mi Calm Calm - N/A   Clear
4:53 AM 61.0 °F - 54.0 °F 78% 29.87 in 10.0 mi Calm Calm - N/A   Clear
5:53 AM 61.0 °F - 53.1 °F 75% 29.87 in 10.0 mi Calm Calm - N/A   Clear
6:53 AM 62.1 °F - 54.0 °F 75% 29.88 in 10.0 mi Calm Calm - N/A   Clear
7:53 AM 68.0 °F - 57.9 °F 70% 29.88 in 10.0 mi Calm Calm - N/A   Clear
8:53 AM 73.0 °F - 59.0 °F 61% 29.88 in 10.0 mi NNW 3.5 mph - N/A   Clear
9:53 AM 78.1 °F - 57.9 °F 50% 29.87 in 10.0 mi Variable 4.6 mph - N/A   Clear
11:53 AM 89.1 °F 88.2 °F 59.0 °F 36% 29.84 in 10.0 mi West 8.1 mph - N/A   Clear
12:53 PM 91.9 °F 90.6 °F 57.0 °F 31% 29.83 in 10.0 mi WSW 6.9 mph - N/A   Clear
1:53 PM 99.0 °F - 45.0 °F 16% 29.81 in 10.0 mi Variable 4.6 mph - N/A   Clear
2:53 PM 100.9 °F - 43.0 °F 14% 29.81 in 10.0 mi East 9.2 mph - N/A   Clear
3:53 PM 102.0 °F - 43.0 °F 13% 29.79 in 10.0 mi NE 4.6 mph - N/A   Clear
4:53 PM 100.0 °F - 52.0 °F 20% 29.78 in 10.0 mi West 8.1 mph - N/A   Clear
5:53 PM 100.0 °F 97.9 °F 54.0 °F 21% 29.77 in 10.0 mi Variable 3.5 mph - N/A   Clear
6:53 PM 100.9 °F - 45.0 °F 15% 29.76 in 10.0 mi North 4.6 mph - N/A   Clear
7:53 PM 95.0 °F 94.4 °F 59.0 °F 30% 29.76 in 10.0 mi NNW 3.5 mph - N/A   Clear
8:53 PM 89.1 °F 88.2 °F 59.0 °F 36% 29.78 in 10.0 mi Calm Calm - N/A   Clear
9:53 PM 80.1 °F 81.5 °F 63.0 °F 56% 29.79 in 10.0 mi Calm Calm - N/A   Clear
10:53 PM 79.0 °F - 62.1 °F 56% 29.80 in 10.0 mi Calm Calm - N/A   Clear
11:53 PM 75.0 °F - 62.1 °F 64% 29.81 in 10.0 mi Calm Calm - N/A   Clear